Tracking 25734 objects as of 27-May-2022
HD Live streaming from Space Station
objects crossing your sky now

ONEWEB-0288

Track ONEWEB-0288 now!
10-day predictions
ONEWEB-0288 is classified as:


NORAD ID: 49078
Int'l Code: 2021-075D
Perigee: 1,218.6 km
Apogee: 1,221.9 km
Inclination: 87.9 °
Period: 109.7 minutes
Semi major axis: 7591 km
RCS: Unknown
Launch date: August 21, 2021
Source: United Kingdom (UK)
Launch site: TYURATAM MISSILE AND SPACE COMPLEX (TTMTR)
aabbcc
Your satellite tracking list
Your tracking list is empty




NASA's NSSDC Master Catalog

Two Line Element Set (TLE):
1 49078U 21075D   22146.91667824 -.00015384  00000-0 -42777-1 0  9992
2 49078  87.8731 285.3125 0002175 102.1917  21.2669 13.12591166  1301
Source of the keplerian elements: AFSPC